Wind_Speed
63 64 67 62 62 61 60 59 58 54 52 53 53 53 54 51 52 50 50 49 48 47 48 51 50 50 48 44 43 44 45 47 50 47 46 39 39 38 37 38 38 38 39 40
65 61 60 58 58 61 60 58 55 56 53 55 57 57 53 53 58 58 56 55 53 51 51 50 53 53 52 49 46 44 47 50 50 52 48 44 41 42 39 40 39 39 41 41
63 60 58 56 59 62 59 57 55 55 57 58 60 60 60 60 59 60 60 61 61 60 59 57 57 58 58 55 52 51 49 50 53 52 53 50 46 44 45 41 40 41 44 44
63 63 61 56 57 61 64 63 59 58 58 60 63 65 65 62 58 60 63 64 64 66 67 64 63 63 65 63 58 56 52 50 54 54 54 55 54 51 47 44 43 43 45 47
69 66 62 59 60 65 69 66 63 64 62 62 66 70 67 68 65 64 64 64 67 69 70 71 73 72 70 64 62 58 53 53 53 56 54 55 57 55 51 47 46 48 48 49
71 70 65 66 68 70 72 69 65 65 66 66 69 72 72 71 68 67 69 70 71 73 76 78 77 73 71 69 66 61 56 54 55 56 55 54 55 57 56 54 52 52 52 53
74 72 71 70 70 74 78 70 70 70 70 70 71 73 73 74 75 74 76 77 78 79 81 82 81 79 77 72 67 61 56 54 54 55 54 56 54 55 57 57 57 57 56 55
79 77 74 75 75 79 78 78 74 71 71 73 74 76 77 79 80 81 83 83 85 85 84 83 82 84 81 74 65 58 55 55 53 55 55 55 54 54 56 57 57 57 56 57
84 82 81 81 81 81 81 81 79 76 76 78 81 83 85 85 86 89 90 89 90 89 88 85 89 86 83 75 66 59 57 57 54 56 58 55 55 54 53 53 56 58 59 58
90 88 91 87 87 87 87 87 86 86 85 84 85 88 92 96 95 95 95 95 91 89 89 89 88 82 76 76 69 62 59 59 57 57 61 57 54 54 53 50 48 51 55 58
96 95 93 93 92 92 92 92 92 91 90 91 92 94 97 102 104 102 97 95 95 92 91 88 83 79 76 72 68 66 62 60 59 59 62 60 57 55 53 53 52 50 50 51
100 99 100 99 98 99 98 98 97 98 98 100 100 101 102 103 104 105 104 99 95 93 90 86 81 78 74 70 66 63 60 59 59 60 63 63 59 58 56 54 53 52 51 49
107 106 106 106 106 104 105 105 105 105 105 106 108 107 106 105 105 107 103 102 97 87 83 79 77 76 75 67 63 60 60 59 58 60 63 64 61 58 56 55 56 54 52 50
113 113 113 113 113 112 112 112 113 113 113 112 109 108 107 107 108 105 101 96 92 89 81 74 72 72 70 66 62 60 60 59 56 61 62 64 65 64 61 60 59 57 54 52
119 118 118 119 119 119 118 118 118 116 115 114 113 111 108 104 103 100 98 95 87 82 82 79 70 63 64 65 65 62 60 59 59 60 62 62 62 67 67 64 63 61 58 57
120 121 120 119 120 121 119 118 117 116 114 112 108 103 100 98 95 93 92 92 90 84 80 78 68 59 59 62 63 63 62 61 60 62 62 64 65 67 67 66 64 65 64 62
118 119 119 119 117 116 117 117 113 109 106 103 101 98 97 95 93 91 88 84 80 76 71 71 65 62 59 55 61 65 66 66 65 64 62 64 69 68 66 65 64 65 66 67
114 115 114 112 109 107 106 105 103 102 100 99 97 94 90 84 78 77 75 70 66 63 64 68 68 63 59 56 54 63 69 70 68 68 67 66 64 67 65 62 63 63 62 63
101 102 102 102 99 98 97 95 92 90 90 89 88 84 79 75 74 71 68 63 60 60 65 69 68 61 59 57 54 56 66 72 72 68 69 69 62 59 58 58 62 63 63 64
82 81 82 84 84 85 85 86 87 88 87 85 83 80 76 77 73 69 66 64 66 65 68 69 67 61 61 59 57 55 59 67 73 73 70 67 66 61 63 60 61 60 60 64
79 81 83 84 85 86 87 87 87 87 88 88 83 79 76 73 70 67 66 66 75 68 66 68 67 66 64 64 62 60 57 61 67 72 73 68 64 57 55 57 58 57 61 64
76 77 78 78 79 81 80 80 81 81 82 80 75 74 71 68 67 66 65 64 69 67 65 66 67 68 67 67 64 60 59 57 61 65 67 66 63 55 54 52 51 55 60 60
65 64 64 63 64 66 68 68 68 67 67 65 64 63 60 60 61 61 62 59 61 60 59 61 63 63 64 62 60 60 58 56 57 59 58 57 57 55 52 50 52 56 57 59
54 53 52 53 53 54 56 57 57 57 57 57 59 57 54 54 54 53 55 54 54 54 53 53 53 56 57 57 55 54 54 53 53 55 53 51 54 52 51 51 57 58 60 62
46 46 45 45 46 47 48 51 54 52 51 53 55 53 51 48 47 46 48 49 50 50 49 48 48 49 50 52 52 53 54 51 52 53 51 51 50 52 54 60 63 63 63 64
42 42 42 41 41 42 42 43 45 44 44 47 47 45 41 39 39 40 40 42 45 45 45 44 44 46 48 49 50 51 51 51 51 51 50 48 47 55 61 63 63 64 63 65
36 35 34 35 34 35 36 36 37 40 39 38 36 31 32 33 33 33 34 36 39 39 40 41 41 42 46 48 47 48 49 50 49 48 48 48 49 55 58 61 61 61 63 67
Wind_Direction
258 260 261 256 254 260 260 259 264 263 270 271 272 276 281 288 290 292 296 296 298 298 299 305 310 313 314 302 297 290 283 278 275 275 275 278 285 286 283 289 287 280 277 278
254 254 258 261 258 256 257 257 260 265 269 270 270 271 276 280 287 290 291 297 297 296 296 301 304 309 309 308 303 299 292 278 274 270 271 273 280 281 282 285 288 279 278 280
251 251 253 257 261 260 260 263 263 263 267 271 272 274 278 282 285 289 294 295 295 295 296 298 301 305 306 308 303 298 293 284 272 271 267 267 270 276 279 281 279 276 277 280
250 251 253 253 257 261 263 264 266 269 271 272 274 278 280 280 281 285 291 291 292 294 297 298 300 301 302 304 302 298 291 285 274 269 268 265 266 269 275 277 276 274 277 279
248 250 254 257 258 259 260 263 270 273 273 273 273 275 278 282 285 286 286 289 291 293 296 297 298 300 301 300 299 296 287 280 273 267 269 266 265 267 269 273 274 275 274 277
247 250 253 255 259 263 264 266 269 270 272 273 275 278 281 282 285 287 287 289 290 292 295 296 298 298 299 298 297 294 283 277 270 264 265 269 267 266 268 269 271 273 275 279
252 253 255 257 260 264 265 267 268 270 273 276 277 279 282 283 285 286 287 288 290 292 294 296 296 297 297 297 296 289 281 273 266 261 262 264 268 267 266 268 270 271 274 277
253 254 255 256 258 261 264 267 270 273 275 276 276 277 278 279 281 282 285 287 289 292 293 293 293 295 296 296 292 284 277 271 263 259 257 259 263 268 266 266 269 273 276 278
254 255 256 257 259 260 263 267 269 270 272 273 274 275 276 277 279 282 285 287 290 290 291 293 295 293 292 291 286 281 274 268 261 257 255 257 259 263 268 269 270 272 274 277
255 256 258 259 261 263 264 266 267 268 270 270 271 274 277 280 282 284 285 287 288 289 289 290 291 290 287 287 284 280 272 266 259 255 254 254 256 259 264 269 273 274 276 278
255 257 260 261 263 265 265 266 267 268 270 271 274 276 278 280 283 284 284 286 287 287 287 287 285 284 283 283 281 276 269 263 257 254 254 254 256 257 260 264 269 274 279 283
256 257 259 260 261 263 264 266 268 271 273 275 277 278 278 279 281 283 285 284 284 285 285 284 282 282 281 279 274 268 264 259 255 255 253 253 255 258 259 263 267 270 275 280
255 256 258 260 262 264 267 268 270 272 273 273 275 276 278 280 282 284 284 286 285 283 281 279 279 280 280 276 269 262 259 257 254 254 250 251 252 257 259 261 264 269 272 277
257 259 261 263 265 266 267 268 270 272 273 275 277 279 279 280 280 280 281 280 280 282 281 278 278 277 275 274 267 258 256 256 254 253 252 250 251 254 257 261 264 267 270 273
257 260 262 265 266 268 270 270 272 274 275 276 277 278 278 277 277 277 278 278 277 277 279 278 275 270 272 273 266 256 252 253 252 250 250 250 250 253 254 259 264 266 268 270
258 261 262 263 266 269 271 273 274 275 275 276 276 276 275 274 273 273 272 273 275 276 276 274 271 265 266 269 262 255 250 249 250 251 249 246 247 252 255 257 261 265 267 271
258 260 263 266 269 270 271 272 274 275 274 273 274 274 273 273 272 272 272 272 273 273 270 266 265 263 262 267 260 253 249 249 248 248 247 244 247 250 255 259 262 265 268 271
261 263 265 266 268 269 269 271 272 273 274 274 275 276 276 275 274 273 272 272 270 267 262 261 262 262 262 264 261 253 249 247 247 246 248 250 248 252 255 259 263 265 269 272
261 263 265 267 268 268 269 268 268 268 270 271 272 272 271 272 274 273 271 270 265 260 257 257 261 261 260 262 261 256 249 248 247 245 248 250 247 247 251 256 260 264 269 272
262 263 263 264 265 266 266 267 268 269 270 270 269 270 270 270 271 270 268 267 264 259 257 259 261 261 259 257 257 258 252 247 246 246 249 250 253 251 254 256 261 264 268 272
261 262 263 263 263 264 265 266 268 269 270 271 272 273 272 271 269 267 265 263 262 261 259 258 257 257 256 256 256 255 254 249 246 246 248 250 253 252 250 254 258 262 266 271
264 264 264 265 265 267 267 265 265 266 267 270 271 270 269 269 267 265 262 259 259 258 257 255 254 252 252 252 253 252 252 250 246 244 244 248 251 253 251 251 255 260 264 265
268 268 267 267 266 265 265 265 267 267 268 268 269 268 266 265 263 262 261 258 258 257 254 252 251 250 249 248 248 246 247 248 245 244 244 246 250 251 250 251 254 258 260 262
270 270 268 268 267 266 265 266 265 264 264 265 266 266 266 264 263 261 259 256 253 252 251 249 248 246 244 243 242 243 243 244 241 241 244 245 246 247 246 252 256 257 259 262
275 275 275 273 270 269 268 267 264 264 265 265 266 267 266 266 265 260 257 254 251 249 248 248 246 244 241 238 237 237 238 237 235 237 240 245 245 246 249 252 252 254 257 262
276 276 276 275 273 272 272 270 270 270 269 268 266 265 265 265 262 258 255 252 248 247 245 244 244 241 236 234 234 235 235 235 234 236 239 243 241 240 243 244 249 252 255 262
283 281 281 279 276 276 273 273 275 273 267 264 262 263 263 262 259 255 252 249 246 244 242 240 241 239 234 233 235 236 235 234 234 237 238 241 241 240 244 247 250 253 256 262
Height
10621 10617 10613 10627 10633 10634 10636 10638 10643 10645 10649 10647 10647 10645 10645 10649 10648 10649 10647 10647 10645 10642 10640 10635 10632 10628 10625 10621 10618 10614 10610 10607 10606 10604 10603 10603 10602 10600 10598 10596 10593 10590 10587 10585
10603 10605 10602 10608 10614 10616 10618 10623 10630 10632 10635 10634 10631 10632 10638 10638 10635 10634 10634 10632 10631 10630 10627 10627 10623 10618 10614 10610 10606 10602 10599 10595 10593 10593 10592 10592 10591 10589 10587 10586 10584 10580 10577 10576
10586 10590 10593 10598 10594 10594 10601 10609 10616 10621 10622 10621 10617 10617 10620 10623 10624 10620 10619 10615 10611 10610 10610 10612 10611 10606 10601 10598 10593 10589 10586 10583 10580 10579 10579 10579 10578 10577 10576 10574 10572 10569 10567 10565
10569 10571 10580 10588 10585 10580 10581 10588 10599 10605 10608 10607 10602 10599 10602 10606 10610 10611 10607 10602 10597 10592 10589 10589 10592 10591 10587 10584 10579 10574 10570 10567 10565 10565 10565 10565 10565 10564 10563 10562 10560 10558 10556 10554
10552 10558 10568 10572 10573 10567 10563 10575 10583 10586 10590 10591 10587 10579 10585 10585 10593 10595 10592 10590 10584 10579 10574 10571 10570 10571 10572 10568 10564 10560 10555 10551 10549 10550 10550 10550 10550 10550 10550 10548 10547 10545 10543 10540
10540 10545 10553 10554 10552 10549 10549 10560 10569 10569 10569 10571 10568 10564 10566 10567 10572 10572 10569 10571 10567 10563 10559 10555 10553 10550 10550 10549 10547 10542 10539 10535 10533 10534 10535 10535 10535 10535 10535 10534 10533 10531 10530 10528
10521 10530 10536 10538 10538 10531 10529 10550 10549 10549 10552 10554 10553 10548 10548 10548 10547 10551 10548 10548 10545 10545 10542 10537 10532 10532 10531 10530 10529 10525 10521 10517 10517 10519 10520 10520 10520 10520 10520 10519 10518 10517 10516 10514
10503 10512 10520 10518 10519 10514 10518 10518 10528 10535 10537 10536 10534 10531 10529 10529 10528 10529 10529 10528 10525 10525 10525 10519 10515 10508 10507 10508 10507 10504 10501 10500 10500 10503 10503 10504 10506 10505 10504 10504 10504 10502 10500 10499
10484 10490 10495 10495 10500 10502 10503 10506 10510 10516 10516 10514 10511 10508 10507 10509 10508 10507 10507 10507 10508 10504 10500 10498 10491 10489 10487 10488 10486 10485 10482 10481 10484 10486 10487 10490 10491 10490 10489 10489 10489 10487 10485 10484
10460 10468 10466 10477 10478 10480 10482 10486 10490 10492 10496 10498 10495 10490 10484 10478 10482 10484 10485 10484 10486 10484 10479 10475 10473 10468 10468 10464 10464 10464 10462 10463 10466 10467 10469 10474 10475 10475 10475 10475 10475 10473 10471 10470
10435 10441 10448 10453 10456 10457 10460 10462 10464 10471 10473 10473 10474 10471 10464 10456 10453 10456 10462 10464 10462 10462 10458 10452 10448 10446 10446 10445 10444 10443 10442 10444 10446 10449 10452 10457 10458 10458 10460 10461 10462 10461 10457 10455
10414 10418 10421 10428 10431 10432 10437 10439 10443 10446 10448 10446 10446 10445 10443 10438 10431 10427 10429 10436 10437 10434 10432 10428 10426 10424 10423 10424 10422 10421 10423 10425 10429 10432 10434 10439 10441 10443 10444 10445 10446 10447 10445 10443
10386 10393 10398 10401 10405 10412 10411 10414 10419 10421 10421 10421 10419 10418 10416 10415 10410 10404 10402 10399 10402 10410 10410 10408 10405 10403 10401 10402 10401 10401 10402 10405 10412 10414 10417 10421 10425 10427 10428 10429 10430 10431 10431 10429
10363 10369 10371 10375 10378 10385 10389 10388 10388 10390 10391 10392 10394 10394 10393 10388 10384 10379 10376 10376 10376 10373 10381 10385 10386 10384 10379 10379 10380 10382 10384 10386 10394 10397 10399 10404 10408 10410 10412 10413 10414 10414 10415 10414
10342 10347 10346 10346 10349 10353 10355 10357 10359 10360 10361 10362 10362 10363 10363 10361 10356 10351 10349 10347 10352 10357 10352 10355 10365 10364 10359 10358 10360 10361 10365 10368 10372 10377 10382 10385 10389 10391 10394 10396 10397 10398 10399 10397
10318 10318 10324 10327 10325 10322 10326 10329 10328 10327 10326 10328 10329 10329 10331 10331 10329 10327 10326 10325 10326 10331 10331 10329 10337 10342 10341 10338 10339 10342 10345 10349 10352 10357 10363 10365 10369 10371 10375 10378 10380 10381 10382 10382
10296 10296 10297 10298 10300 10300 10297 10297 10297 10298 10298 10295 10294 10295 10296 10298 10299 10299 10300 10301 10305 10307 10307 10303 10309 10315 10319 10320 10318 10321 10324 10328 10333 10337 10341 10346 10350 10354 10358 10362 10363 10364 10364 10364
10270 10272 10275 10275 10275 10273 10271 10269 10268 10266 10264 10264 10263 10263 10265 10267 10270 10271 10272 10277 10282 10285 10285 10280 10282 10290 10297 10300 10299 10300 10303 10307 10313 10318 10322 10328 10334 10337 10343 10345 10346 10346 10347 10345
10247 10247 10247 10247 10246 10244 10242 10242 10242 10240 10239 10240 10239 10240 10243 10244 10245 10248 10249 10253 10256 10259 10257 10254 10260 10270 10276 10279 10281 10281 10283 10288 10292 10298 10304 10308 10315 10321 10326 10328 10327 10329 10329 10326
10224 10225 10223 10220 10219 10217 10215 10214 10214 10214 10212 10215 10215 10218 10223 10220 10222 10225 10227 10230 10227 10231 10232 10234 10241 10250 10253 10257 10260 10262 10264 10268 10272 10277 10283 10291 10295 10303 10307 10309 10310 10312 10311 10307
10200 10199 10196 10196 10196 10194 10193 10191 10190 10188 10186 10187 10190 10194 10194 10195 10198 10200 10202 10206 10195 10206 10212 10215 10220 10226 10230 10233 10238 10242 10246 10249 10253 10258 10265 10272 10277 10284 10288 10291 10293 10295 10293 10290
10171 10172 10171 10171 10171 10167 10165 10166 10164 10164 10161 10162 10166 10166 10168 10171 10170 10171 10174 10177 10172 10180 10187 10191 10195 10199 10205 10209 10216 10223 10227 10230 10234 10239 10246 10254 10258 10265 10271 10274 10276 10277 10275 10274
10146 10146 10146 10147 10146 10143 10140 10141 10141 10141 10140 10141 10141 10142 10144 10145 10146 10149 10148 10154 10153 10157 10162 10165 10169 10175 10182 10189 10197 10203 10207 10212 10217 10222 10228 10235 10242 10249 10255 10257 10260 10259 10258 10258
10127 10128 10126 10125 10124 10123 10121 10120 10120 10120 10120 10119 10118 10120 10123 10124 10125 10129 10129 10132 10135 10138 10142 10145 10150 10155 10162 10170 10178 10184 10189 10195 10201 10206 10212 10220 10226 10232 10238 10241 10243 10241 10242 10242
10111 10109 10108 10107 10105 10103 10102 10101 10099 10101 10103 10102 10102 10103 10105 10106 10107 10111 10112 10116 10118 10122 10127 10132 10135 10140 10148 10153 10160 10166 10171 10178 10184 10190 10197 10203 10208 10215 10220 10225 10226 10226 10226 10226
10095 10093 10091 10089 10088 10087 10086 10085 10084 10086 10088 10087 10088 10089 10090 10091 10092 10094 10098 10101 10104 10109 10115 10119 10123 10127 10133 10138 10145 10151 10157 10164 10170 10177 10183 10189 10194 10200 10205 10207 10208 10210 10211 10210
10083 10081 10079 10077 10076 10074 10072 10072 10072 10072 10073 10073 10075 10076 10076 10077 10080 10082 10085 10089 10093 10098 10103 10107 10111 10116 10121 10126 10132 10138 10144 10151 10158 10165 10171 10177 10181 10185 10188 10190 10193 10195 10195 10194